Simultaneous Nadir Overpasses (SNOs) Predictions

Prediction of SNOs between GOES-16 and LANDSAT-8 Satellite Orbit:

Table of predicted SNOs for the next 14.0 days since TLE Epoch: 3/23/2024
Index Date Time (GOES-16) GOES-16 Lat,Lon LANDSAT-8 Lat,Lon Distance(km) Time Diff (sec)
1 03/24/2024 02:57:06 -0.04, -75.20 0.68, -71.70 397.44 80
2 03/24/2024 15:18:21 0.04, -75.22 0.40, -76.86 186.77 80
3 03/26/2024 15:08:47 0.04, -75.24 -0.26, -73.90 152.25 80
4 03/27/2024 03:30:10 -0.04, -75.23 -0.87, -79.09 438.79 80
5 03/28/2024 14:56:32 0.04, -75.26 -0.89, -70.94 491.67 80
6 03/29/2024 03:17:55 -0.04, -75.25 -0.23, -76.12 99.30 80
7 03/31/2024 03:02:59 -0.04, -75.27 0.38, -73.15 240.40 80
8 03/31/2024 15:24:13 0.03, -75.28 0.67, -78.31 343.71 80
9 04/02/2024 15:11:58 0.03, -75.31 0.02, -75.34 4.03 80
10 04/04/2024 15:02:21 0.02, -75.33 -0.60, -72.36 337.30 80
11 04/05/2024 03:23:43 -0.02, -75.33 -0.49, -77.55 252.93 80
